This is the latest recevied weather packets stored in our database for station/object EA3DJ-10. If no packets are shown the sender has not sent any weather packets the latest 10 day(s).
| Time | Temp. | Humidity | Pressure | Rain* | Wind** | Luminosity | Snow |
|---|---|---|---|---|---|---|---|
| 1778114377 | 23.33° C | 44% | 1015.5 hPa | - | - | - | - |
| 1778113177 | 23.89° C | 43% | 1015.5 hPa | - | - | - | - |
| 1778111977 | 23.89° C | 43% | 1015.6 hPa | - | - | - | - |
| 1778110777 | 24.44° C | 43% | 1015.6 hPa | - | - | - | - |
| 1778109577 | 25° C | 43% | 1015.4 hPa | - | - | - | - |
| 1778108377 | 25° C | 44% | 1015.5 hPa | - | - | - | - |
| 1778107176 | 24.44° C | 45% | 1015.4 hPa | - | - | - | - |
| 1778105976 | 23.33° C | 47% | 1015.5 hPa | - | - | - | - |
| 1778104776 | 23.33° C | 46% | 1015.5 hPa | - | - | - | - |
| 1778103576 | 22.78° C | 47% | 1015.3 hPa | - | - | - | - |
| 1778102376 | 22.22° C | 46% | 1015.4 hPa | - | - | - | - |
| 1778101176 | 22.22° C | 46% | 1015.3 hPa | - | - | - | - |
| 1778099976 | 22.22° C | 46% | 1015.2 hPa | - | - | - | - |
| 1778098776 | 22.22° C | 46% | 1014.9 hPa | - | - | - | - |
| 1778097576 | 22.22° C | 46% | 1014.6 hPa | - | - | - | - |
| 1778096375 | 22.22° C | 45% | 1014.2 hPa | - | - | - | - |
| 1778095175 | 22.22° C | 45% | 1014 hPa | - | - | - | - |
| 1778093975 | 22.22° C | 45% | 1013.8 hPa | - | - | - | - |
| 1778092775 | 22.22° C | 45% | 1013.5 hPa | - | - | - | - |
| 1778091575 | 22.22° C | 45% | 1013.3 hPa | - | - | - | - |
| 1778090375 | 22.22° C | 45% | 1013.2 hPa | - | - | - | - |
| 1778089175 | 22.22° C | 44% | 1013 hPa | - | - | - | - |
| 1778087975 | 22.22° C | 44% | 1012.9 hPa | - | - | - | - |
| 1778086775 | 22.22° C | 44% | 1012.7 hPa | - | - | - | - |
| 1778085574 | 22.22° C | 45% | 1012.5 hPa | - | - | - | - |
* Rain since midnight (hover to see other rain measurements)
** Current wind speed in m/s (hover to see current wind gust speed)